Weather History for Pensacola NAS, FL

Change the Weather History Date:

Wednesday, August 28, 2013

  Actual Average Record
Temperature  
Mean Temperature 78 °F -  
Max Temperature 87 °F 87 °F 93 °F (1998)
Min Temperature 68 °F 72 °F 62 °F (2005)
Cooling Degree Days 12    
Growing Degree Days 28 (Base 50)    
Moisture  
Dew Point 69 °F    
Average Humidity 76    
Maximum Humidity 93    
Minimum Humidity 57    
Precipitation  
Precipitation 0.00 in - - ()
Sea Level Pressure  
Sea Level Pressure 30.04 in    
Wind  
Wind Speed 4 mph (NW)    
Max Wind Speed 10 mph    
Max Gust Speed -    
Visibility 10 miles    
Events      
Averages and records for this station are not official NWS values.
T = Trace of Precipitation, MM = Missing Value Source: NWS Daily Summary

Daily Weather History Graph

Daily Weather History Graph

Search for Another Location

Airport:

Trip Planner

Search our weather history database for the weather conditions in past years. The results will help you decide how hot, cold, wet, or windy it might be!

Date:

Astronomy

Aug. 28, 2013 Rise Set
Actual Time 6:23 AM CDT 7:16 PM CDT
Civil Twilight 5:59 AM CDT 7:40 PM CDT
Nautical Twilight 5:30 AM CDT 8:09 PM CDT
Astronomical Twilight 5:00 AM CDT 8:39 PM CDT
Moon No Moon Rise 1:42 PM CDT (8/28)
Length of Visible Light 13h 41m
Length of Day
12h 52m
Waning Gibbous, 47% of the Moon is Illuminated
Aug 28
Waning Gibbous
Sep 5
New
Sep 12
First Quarter
Sep 19
Full
Sep 26
Last Quarter

Hourly Weather History & Observations

Time (CDT) Temp. Heat Index Dew Point Humidity Pressure Visibility Wind Dir Wind Speed Gust Speed Precip Events Conditions
12:56 AM 71.1 °F - 66.9 °F 87% 30.04 in 10.0 mi North 4.6 mph - N/A   Clear
1:56 AM 70.0 °F - 66.9 °F 90% 30.03 in 10.0 mi North 4.6 mph - N/A   Clear
2:56 AM 70.0 °F - 66.9 °F 90% 30.01 in 10.0 mi North 3.5 mph - N/A   Clear
3:56 AM 70.0 °F - 66.9 °F 90% 30.01 in 10.0 mi North 3.5 mph - N/A   Clear
4:56 AM 68.0 °F - 66.0 °F 93% 30.01 in 10.0 mi North 4.6 mph - N/A   Clear
5:56 AM 68.0 °F - 66.0 °F 93% 30.02 in 10.0 mi Calm Calm - N/A   Partly Cloudy
6:56 AM 69.1 °F - 66.9 °F 93% 30.04 in 10.0 mi North 3.5 mph - N/A   Scattered Clouds
7:56 AM 73.9 °F - 69.1 °F 85% 30.06 in 10.0 mi North 3.5 mph - N/A   Scattered Clouds
8:56 AM 79.0 °F - 69.1 °F 72% 30.07 in 10.0 mi Calm Calm - N/A   Partly Cloudy
9:56 AM 82.9 °F 87.5 °F 71.1 °F 67% 30.08 in 10.0 mi ENE 3.5 mph - N/A   Scattered Clouds
10:56 AM 84.0 °F 89.0 °F 71.1 °F 65% 30.08 in 10.0 mi Calm Calm - N/A   Mostly Cloudy
11:56 AM 84.0 °F 90.2 °F 73.0 °F 69% 30.07 in 10.0 mi SSE 6.9 mph - N/A   Mostly Cloudy
12:56 PM 84.9 °F 90.7 °F 72.0 °F 65% 30.06 in 10.0 mi South 8.1 mph - N/A   Mostly Cloudy
1:56 PM 86.0 °F 91.5 °F 71.1 °F 61% 30.05 in 10.0 mi South 6.9 mph - N/A   Mostly Cloudy
2:56 PM 87.1 °F 92.0 °F 70.0 °F 57% 30.03 in 10.0 mi South 6.9 mph - N/A   Mostly Cloudy
3:56 PM 86.0 °F 90.1 °F 69.1 °F 57% 30.02 in 10.0 mi SSW 9.2 mph - N/A   Mostly Cloudy
4:56 PM 86.0 °F 90.1 °F 69.1 °F 57% 30.01 in 10.0 mi SSW 10.4 mph - N/A   Scattered Clouds
5:56 PM 84.0 °F 87.8 °F 69.1 °F 61% 30.01 in 10.0 mi SW 8.1 mph - N/A   Scattered Clouds
6:56 PM 82.0 °F 85.5 °F 69.1 °F 65% 30.01 in 10.0 mi Calm Calm - N/A   Scattered Clouds
7:56 PM 78.1 °F - 69.1 °F 74% 30.01 in 10.0 mi WSW 3.5 mph - N/A   Scattered Clouds
8:56 PM 77.0 °F - 69.1 °F 76% 30.02 in 10.0 mi Calm Calm - N/A   Scattered Clouds
9:56 PM 75.9 °F - 69.1 °F 79% 30.04 in 10.0 mi Calm Calm - N/A   Scattered Clouds
10:56 PM 73.9 °F - 70.0 °F 87% 30.04 in 10.0 mi Calm Calm - N/A   Partly Cloudy
11:56 PM 72.0 °F - 70.0 °F 93% 30.04 in 10.0 mi Calm Calm - N/A   Mostly Cloudy